Simultaneous Nadir Overpasses (SNOs) Predictions

Prediction of SNOs between NOAA-20 and METOP-B Satellite Orbit:

Table of predicted SNOs for the next 14.0 days since TLE Epoch: 1/23/2024
Index Date (NOAA-20) Time (NOAA-20) Lat,Lon (NOAA-20) SZA (NOAA-20 ) Date (METOP-B) Time (METOP-B) Lat,Lon (METOP-B) SZA (METOP-B ) Distance(km) Time Diff (sec)
1 02/05/2024 19:02:26 73.71,-115.82 89.97 02/05/2024 19:03:33 73.65,-113.39 89.75 76.32 67
2 02/05/2024 19:53:08 -73.61, 51.72 90.16 02/05/2024 19:54:17 -73.57, 53.74 90.34 63.45 69
3 02/05/2024 20:43:50 73.42,-140.51 89.61 02/05/2024 20:45:01 73.33,-139.45 89.45 35.13 71
4 02/05/2024 21:34:32 -73.32, 27.02 90.51 02/05/2024 21:35:45 -73.25, 27.69 90.64 22.58 73
5 02/05/2024 22:25:14 73.12,-165.23 89.26 02/05/2024 22:26:27 73.12,-165.26 89.24 1.13 73
6 02/05/2024 23:15:58 -73.12, 2.08 90.75 02/05/2024 23:17:09 -73.14, 2.10 90.76 1.72 71
7 02/06/2024 00:06:44 73.12, 169.39 89.24 02/06/2024 00:07:49 73.10, 169.36 89.21 2.31 65
8 02/06/2024 00:57:28 -73.12, -23.30 90.77 02/06/2024 00:58:31 -73.12, -23.27 90.79 0.88 63
9 02/06/2024 01:48:14 73.13, 144.01 89.22 02/06/2024 01:49:10 73.14, 144.10 89.22 3.28 56



Historial Predications of SNOs between NOAA-20 and METOP-B
